Time,TemperatureF,DewpointF,PressureIn,WindDirection,WindDirectionDegrees,WindSpeedMPH,WindSpeedGustMPH,Humidity,HourlyPrecipIn,Conditions,Clouds,dailyrainin,SolarRadiationWatts/m^2,SoftwareType,DateUTC
2013-03-25 00:01:00,17.8,14.3,30.42,ESE,109,0.7,2.3,86,0.00,OVC,OVC,0.18,0.0,WeatherDisplay:10.37,2013-03-25 06:01:00,
2013-03-25 00:08:00,17.7,14.2,30.42,ESE,109,0.6,2.3,86,0.00,OVC,OVC,0.18,0.0,WeatherDisplay:10.37,2013-03-25 06:08:00,
2013-03-25 00:15:00,17.5,14.0,30.42,ESE,123,1.2,3.4,86,0.00,OVC,OVC,0.18,0.0,WeatherDisplay:10.37,2013-03-25 06:15:00,
2013-03-25 00:22:00,17.3,13.8,30.43,ESE,123,0.3,1.1,86,0.00,OVC,OVC,0.18,0.0,WeatherDisplay:10.37,2013-03-25 06:22:00,
2013-03-25 00:29:00,17.2,13.7,30.43,ESE,123,0.4,2.0,86,0.00,OVC,OVC,0.18,0.0,WeatherDisplay:10.37,2013-03-25 06:29:00,
2013-03-25 00:36:00,17.1,13.6,30.43,SE,125,1.9,3.4,86,0.00,OVC,OVC,0.18,0.0,WeatherDisplay:10.37,2013-03-25 06:36:00,
2013-03-25 00:43:00,17.1,13.6,30.43,SE,127,2.0,4.6,86,0.00,OVC,OVC,0.18,0.0,WeatherDisplay:10.37,2013-03-25 06:43:00,
2013-03-25 00:50:00,17.1,13.6,30.43,SE,126,0.0,1.1,86,0.00,OVC,OVC,0.18,0.0,WeatherDisplay:10.37,2013-03-25 06:50:00,
2013-03-25 00:57:00,17.1,13.6,30.43,SE,126,0.0,0.0,86,0.00,OVC,OVC,0.18,0.0,WeatherDisplay:10.37,2013-03-25 06:57:00,
2013-03-25 01:04:00,17.0,13.5,30.44,SE,127,0.0,0.0,86,0.00,BKN,BKN,0.00,0.0,WeatherDisplay:10.37,2013-03-25 07:04:00,
2013-03-25 01:11:00,17.0,13.5,30.43,SE,126,0.0,0.0,86,0.00,BKN,BKN,0.00,0.0,WeatherDisplay:10.37,2013-03-25 07:11:00,
2013-03-25 01:18:00,16.8,13.3,30.43,SE,126,0.3,1.1,86,0.00,BKN,BKN,0.00,0.0,WeatherDisplay:10.37,2013-03-25 07:18:00,
2013-03-25 01:25:00,16.7,13.2,30.43,SE,126,0.0,0.0,86,0.00,BKN,BKN,0.00,0.0,WeatherDisplay:10.37,2013-03-25 07:25:00,
2013-03-25 01:32:00,16.6,13.1,30.43,SE,127,0.0,0.0,86,0.00,BKN,BKN,0.00,0.0,WeatherDisplay:10.37,2013-03-25 07:32:00,
2013-03-25 01:39:00,16.4,12.9,30.43,SE,127,0.0,0.0,86,0.00,BKN,BKN,0.00,0.0,WeatherDisplay:10.37,2013-03-25 07:39:00,
2013-03-25 01:46:00,16.2,12.7,30.43,SE,127,0.0,0.0,86,0.00,BKN,BKN,0.00,0.0,WeatherDisplay:10.37,2013-03-25 07:46:00,
2013-03-25 01:53:00,16.1,12.7,30.43,SE,127,0.2,1.1,86,0.00,BKN,BKN,0.00,0.0,WeatherDisplay:10.37,2013-03-25 07:53:00,
2013-03-25 02:00:00,16.1,12.7,30.43,SE,126,0.0,0.0,86,0.00,BKN,BKN,0.00,0.0,WeatherDisplay:10.37,2013-03-25 08:00:00,
2013-03-25 02:07:00,16.0,12.6,30.43,SE,126,0.0,0.0,86,0.00,BKN,BKN,0.00,0.0,WeatherDisplay:10.37,2013-03-25 08:07:00,
2013-03-25 02:14:00,15.9,12.5,30.43,SE,127,0.0,0.0,86,0.00,-SN,-SN,0.00,0.0,WeatherDisplay:10.37,2013-03-25 08:14:00,
2013-03-25 02:21:00,15.8,12.4,30.43,SE,126,0.0,0.0,86,0.00,-SN,-SN,0.00,0.0,WeatherDisplay:10.37,2013-03-25 08:21:00,
2013-03-25 02:28:00,15.7,12.3,30.43,SE,126,0.0,0.0,86,0.00,-SN,-SN,0.00,0.0,WeatherDisplay:10.37,2013-03-25 08:28:00,
2013-03-25 02:35:00,15.6,12.2,30.43,SE,126,0.0,0.0,86,0.00,-SN,-SN,0.00,0.0,WeatherDisplay:10.37,2013-03-25 08:35:00,
2013-03-25 02:42:00,15.7,12.5,30.42,SE,127,0.0,0.0,87,0.00,-SN,-SN,0.00,0.0,WeatherDisplay:10.37,2013-03-25 08:42:00,
2013-03-25 02:49:00,15.7,12.5,30.42,SE,127,0.0,0.0,87,0.00,-SN,-SN,0.00,0.0,WeatherDisplay:10.37,2013-03-25 08:49:00,
2013-03-25 02:56:00,15.8,12.6,30.42,SE,127,0.0,0.0,87,0.00,-SN,-SN,0.00,0.0,WeatherDisplay:10.37,2013-03-25 08:56:00,
2013-03-25 03:03:00,15.9,12.7,30.42,SE,127,0.0,0.0,87,0.00,-SN,-SN,0.00,0.0,WeatherDisplay:10.37,2013-03-25 09:03:00,
2013-03-25 03:10:00,16.0,12.8,30.42,SE,127,0.0,0.0,87,0.00,-SN,-SN,0.00,0.0,WeatherDisplay:10.37,2013-03-25 09:10:00,
2013-03-25 03:17:00,16.1,12.9,30.42,SE,126,0.0,0.0,87,0.00,-SN,-SN,0.00,0.0,WeatherDisplay:10.37,2013-03-25 09:17:00,
2013-03-25 03:24:00,16.1,12.9,30.42,SE,127,0.0,0.0,87,0.00,-SN,-SN,0.00,0.0,WeatherDisplay:10.37,2013-03-25 09:24:00,
2013-03-25 03:31:00,16.1,12.9,30.42,SE,126,0.0,0.0,87,0.00,-SN,-SN,0.00,0.0,WeatherDisplay:10.37,2013-03-25 09:31:00,
2013-03-25 03:38:00,16.1,12.9,30.42,SE,127,0.0,0.0,87,0.00,-SN,-SN,0.00,0.0,WeatherDisplay:10.37,2013-03-25 09:38:00,
2013-03-25 03:44:00,15.9,12.7,30.42,SE,126,0.0,0.0,87,0.00,-SN,-SN,0.00,0.0,WeatherDisplay:10.37,2013-03-25 09:44:00,
2013-03-25 03:51:00,15.7,12.5,30.41,SE,126,0.0,0.0,87,0.00,-SN,-SN,0.00,0.0,WeatherDisplay:10.37,2013-03-25 09:51:00,
2013-03-25 03:58:00,15.4,12.2,30.42,SE,127,0.4,1.0,87,0.00,-SN,-SN,0.00,0.0,WeatherDisplay:10.37,2013-03-25 09:58:00,
2013-03-25 04:06:00,15.2,12.0,30.42,SE,127,0.3,2.0,87,0.00,BKN,BKN,0.00,0.0,WeatherDisplay:10.37,2013-03-25 10:06:00,
2013-03-25 04:12:00,14.9,11.7,30.42,SSW,212,1.3,3.4,87,0.00,BKN,BKN,0.00,0.0,WeatherDisplay:10.37,2013-03-25 10:12:00,
2013-03-25 04:19:00,14.6,11.4,30.42,SSW,211,0.0,2.3,87,0.00,BKN,BKN,0.00,0.0,WeatherDisplay:10.37,2013-03-25 10:19:00,
2013-03-25 04:26:00,14.3,11.1,30.43,SSW,211,1.1,1.1,87,0.00,BKN,BKN,0.00,0.0,WeatherDisplay:10.37,2013-03-25 10:26:00,
2013-03-25 04:33:00,14.1,10.7,30.44,SSW,213,0.0,1.1,86,0.00,BKN,BKN,0.00,0.0,WeatherDisplay:10.37,2013-03-25 10:33:00,
2013-03-25 04:40:00,13.8,10.4,30.44,SSW,213,0.0,0.0,86,0.00,BKN,BKN,0.00,0.0,WeatherDisplay:10.37,2013-03-25 10:40:00,
2013-03-25 04:47:00,13.5,10.1,30.44,SSW,213,0.1,0.0,86,0.00,BKN,BKN,0.00,0.0,WeatherDisplay:10.37,2013-03-25 10:47:00,
2013-03-25 04:54:00,13.2,9.8,30.44,SSW,213,0.0,0.0,86,0.00,BKN,BKN,0.00,0.0,WeatherDisplay:10.37,2013-03-25 10:54:00,
2013-03-25 05:01:00,12.8,9.4,30.44,SSW,213,0.1,1.0,86,0.00,BKN,BKN,0.00,0.0,WeatherDisplay:10.37,2013-03-25 11:01:00,
2013-03-25 05:08:00,12.6,9.2,30.45,SSW,213,0.5,2.3,86,0.00,BKN,BKN,0.00,0.0,WeatherDisplay:10.37,2013-03-25 11:08:00,
2013-03-25 05:15:00,12.4,9.0,30.45,SSW,213,0.0,2.3,86,0.00,-SN,-SN,0.00,0.0,WeatherDisplay:10.37,2013-03-25 11:15:00,
2013-03-25 05:22:00,12.4,9.0,30.45,SSW,213,0.0,2.3,86,0.00,-SN,-SN,0.00,0.0,WeatherDisplay:10.37,2013-03-25 11:22:00,
2013-03-25 05:29:00,12.4,9.0,30.45,SSW,213,0.1,1.1,86,0.00,-SN,-SN,0.00,0.0,WeatherDisplay:10.37,2013-03-25 11:29:00,
2013-03-25 05:36:00,12.3,8.9,30.45,SSW,213,0.1,1.1,86,0.00,-SN,-SN,0.00,0.0,WeatherDisplay:10.37,2013-03-25 11:36:00,
2013-03-25 05:43:00,12.3,8.9,30.45,SSW,213,1.0,3.4,86,0.00,-SN,-SN,0.00,0.0,WeatherDisplay:10.37,2013-03-25 11:43:00,
2013-03-25 05:50:00,12.4,9.0,30.46,SSW,213,0.5,2.3,86,0.00,-SN,-SN,0.00,0.0,WeatherDisplay:10.37,2013-03-25 11:50:00,
2013-03-25 05:57:00,12.5,9.1,30.46,SSW,213,0.3,1.0,86,0.00,-SN,-SN,0.00,0.0,WeatherDisplay:10.37,2013-03-25 11:57:00,
2013-03-25 06:04:00,12.5,9.1,30.46,SSW,213,1.1,2.3,86,0.00,BKN,BKN,0.00,0.0,WeatherDisplay:10.37,2013-03-25 12:04:00,
2013-03-25 06:11:00,12.5,8.8,30.46,SSW,213,0.5,2.3,85,0.00,BKN,BKN,0.00,0.0,WeatherDisplay:10.37,2013-03-25 12:11:00,
2013-03-25 06:18:00,12.5,8.8,30.46,SSW,213,1.1,2.3,85,0.00,BKN,BKN,0.00,0.0,WeatherDisplay:10.37,2013-03-25 12:18:00,
2013-03-25 06:25:00,12.5,8.8,30.46,SSW,213,0.6,2.3,85,0.00,-SN,-SN,0.00,0.0,WeatherDisplay:10.37,2013-03-25 12:25:00,
2013-03-25 06:32:00,12.5,8.8,30.46,SSW,213,0.3,2.0,85,0.00,-SN,-SN,0.00,0.0,WeatherDisplay:10.37,2013-03-25 12:32:00,
2013-03-25 06:39:00,12.5,8.8,30.46,SSW,213,0.2,2.3,85,0.00,-SN,-SN,0.00,0.0,WeatherDisplay:10.37,2013-03-25 12:39:00,
2013-03-25 06:46:00,12.5,8.8,30.47,SSW,213,0.8,2.3,85,0.00,-SN,-SN,0.00,0.0,WeatherDisplay:10.37,2013-03-25 12:46:00,
2013-03-25 06:53:00,12.5,8.8,30.47,SSW,213,0.0,0.0,85,0.00,-SN,-SN,0.00,0.0,WeatherDisplay:10.37,2013-03-25 12:53:00,
2013-03-25 07:00:00,12.5,8.6,30.47,SSW,213,0.3,0.0,84,0.00,-SN,-SN,0.00,0.0,WeatherDisplay:10.37,2013-03-25 13:00:00,
2013-03-25 07:07:00,12.5,8.6,30.49,SSW,213,0.2,2.3,84,0.00,-SN,-SN,0.00,7.0,WeatherDisplay:10.37,2013-03-25 13:07:00,
2013-03-25 07:14:00,12.6,8.7,30.49,SSW,213,0.5,2.3,84,0.00,-SN,-SN,0.00,12.0,WeatherDisplay:10.37,2013-03-25 13:14:00,
2013-03-25 07:21:00,12.7,8.8,30.49,SSW,213,1.3,3.4,84,0.00,-SN,-SN,0.00,19.0,WeatherDisplay:10.37,2013-03-25 13:21:00,
2013-03-25 07:28:00,12.8,8.9,30.49,SSW,213,0.4,2.3,84,0.00,-SN,-SN,0.00,26.0,WeatherDisplay:10.37,2013-03-25 13:28:00,
2013-03-25 07:35:00,13.0,9.1,30.50,SSW,213,0.9,3.4,84,0.00,-SN,-SN,0.00,39.0,WeatherDisplay:10.37,2013-03-25 13:35:00,
2013-03-25 07:42:00,13.2,9.0,30.50,SSW,213,0.3,2.0,83,0.00,-SN,-SN,0.00,49.0,WeatherDisplay:10.37,2013-03-25 13:42:00,
2013-03-25 07:49:00,13.3,9.1,30.50,SW,214,0.6,1.1,83,0.00,-SN,-SN,0.00,69.0,WeatherDisplay:10.37,2013-03-25 13:49:00,
2013-03-25 07:56:00,13.4,8.9,30.50,SW,215,0.0,2.3,82,0.00,BKN,BKN,0.00,121.0,WeatherDisplay:10.37,2013-03-25 13:56:00,
2013-03-25 08:03:00,13.6,9.1,30.50,SW,215,1.1,3.4,82,0.00,BKN,BKN,0.00,260.0,WeatherDisplay:10.37,2013-03-25 14:03:00,
2013-03-25 08:10:00,14.0,9.5,30.50,SSW,213,1.9,1.9,82,0.00,BKN,BKN,0.00,250.0,WeatherDisplay:10.37,2013-03-25 14:10:00,
2013-03-25 08:17:00,14.4,9.6,30.50,SSW,213,0.3,2.3,81,0.00,BKN,BKN,0.00,264.0,WeatherDisplay:10.37,2013-03-25 14:17:00,
2013-03-25 08:24:00,14.8,10.0,30.50,SSW,213,1.1,3.4,81,0.00,BKN,BKN,0.00,297.0,WeatherDisplay:10.37,2013-03-25 14:24:00,
2013-03-25 08:31:00,15.3,10.2,30.51,SSW,213,0.7,2.3,80,0.00,BKN,BKN,0.00,309.0,WeatherDisplay:10.37,2013-03-25 14:31:00,
2013-03-25 08:38:00,15.7,10.3,30.49,SSW,213,1.9,3.4,79,0.00,BKN,BKN,0.00,341.0,WeatherDisplay:10.37,2013-03-25 14:38:00,
2013-03-25 08:45:00,16.0,10.3,30.49,SW,217,2.8,3.4,78,0.00,BKN,BKN,0.00,355.0,WeatherDisplay:10.37,2013-03-25 14:45:00,
2013-03-25 08:52:00,16.5,10.5,30.50,SW,222,2.8,4.0,77,0.00,BKN,BKN,0.00,376.0,WeatherDisplay:10.37,2013-03-25 14:52:00,
2013-03-25 08:59:00,16.8,10.5,30.49,SSW,202,1.7,3.4,76,0.00,BKN,BKN,0.00,401.0,WeatherDisplay:10.37,2013-03-25 14:59:00,
2013-03-25 09:06:00,17.5,10.9,30.48,SSE,168,0.6,3.4,75,0.00,SCT,SCT,0.00,422.0,WeatherDisplay:10.37,2013-03-25 15:06:00,
2013-03-25 09:13:00,18.1,11.2,30.48,SSW,209,1.2,3.4,74,0.00,SCT,SCT,0.00,450.0,WeatherDisplay:10.37,2013-03-25 15:13:00,
2013-03-25 09:20:00,18.6,11.4,30.48,SSW,213,0.6,3.4,73,0.00,SCT,SCT,0.00,476.0,WeatherDisplay:10.37,2013-03-25 15:20:00,
2013-03-25 09:27:00,19.0,11.5,30.48,SSW,212,4.7,8.1,72,0.00,SCT,SCT,0.00,499.0,WeatherDisplay:10.37,2013-03-25 15:27:00,
2013-03-25 09:34:00,19.3,11.1,30.48,SSW,210,1.6,3.4,70,0.00,SCT,SCT,0.00,519.0,WeatherDisplay:10.37,2013-03-25 15:34:00,
2013-03-25 09:41:00,19.9,11.4,30.47,SSW,198,1.6,3.4,69,0.00,SCT,SCT,0.00,545.0,WeatherDisplay:10.37,2013-03-25 15:41:00,
2013-03-25 09:48:00,20.5,11.6,30.47,SW,216,1.6,3.4,68,0.00,SCT,SCT,0.00,566.0,WeatherDisplay:10.37,2013-03-25 15:48:00,
2013-03-25 09:55:00,21.2,11.9,30.47,SW,225,4.1,6.9,67,0.00,SCT,SCT,0.00,591.0,WeatherDisplay:10.37,2013-03-25 15:55:00,
2013-03-25 10:02:00,21.6,12.0,30.45,SSE,167,2.4,4.0,66,0.00,SCT,SCT,0.00,613.0,WeatherDisplay:10.37,2013-03-25 16:02:00,
2013-03-25 10:09:00,22.0,12.4,30.45,South,169,2.1,3.4,66,0.00,SCT,SCT,0.00,633.0,WeatherDisplay:10.37,2013-03-25 16:09:00,
2013-03-25 10:16:00,22.9,12.5,30.45,SW,221,3.7,4.6,64,0.00,FEW,FEW,0.00,652.0,WeatherDisplay:10.37,2013-03-25 16:16:00,
2013-03-25 10:23:00,23.4,12.6,30.45,South,182,0.5,3.4,63,0.00,FEW,FEW,0.00,671.0,WeatherDisplay:10.37,2013-03-25 16:23:00,
2013-03-25 10:30:00,23.2,13.2,30.45,SW,220,3.7,4.6,65,0.00,FEW,FEW,0.00,687.0,WeatherDisplay:10.37,2013-03-25 16:30:00,
2013-03-25 10:37:00,23.1,13.4,30.45,SSW,213,1.4,3.4,66,0.00,FEW,FEW,0.00,710.0,WeatherDisplay:10.37,2013-03-25 16:37:00,
2013-03-25 10:44:00,23.7,14.0,30.44,South,176,0.5,3.4,66,0.00,FEW,FEW,0.00,726.0,WeatherDisplay:10.37,2013-03-25 16:44:00,
2013-03-25 10:51:00,24.4,14.3,30.44,SSE,168,0.2,1.1,65,0.00,FEW,FEW,0.00,742.0,WeatherDisplay:10.37,2013-03-25 16:51:00,
2013-03-25 10:58:00,24.9,15.1,30.44,South,191,2.6,4.0,66,0.00,FEW,FEW,0.00,759.0,WeatherDisplay:10.37,2013-03-25 16:58:00,
2013-03-25 11:05:00,24.7,14.6,30.46,SW,218,1.6,4.0,65,0.00,FEW,FEW,0.00,773.0,WeatherDisplay:10.37,2013-03-25 17:05:00,
2013-03-25 11:12:00,25.1,14.6,30.46,SSW,211,2.6,3.4,64,0.00,FEW,FEW,0.00,786.0,WeatherDisplay:10.37,2013-03-25 17:12:00,
2013-03-25 11:19:00,25.9,15.4,30.44,SE,141,0.5,2.3,64,0.00,FEW,FEW,0.00,798.0,WeatherDisplay:10.37,2013-03-25 17:19:00,
2013-03-25 11:26:00,26.5,15.6,30.44,ENE,59,0.8,3.4,63,0.01,RA,RA,0.01,810.0,WeatherDisplay:10.37,2013-03-25 17:26:00,
2013-03-25 11:33:00,27.0,16.1,30.44,SE,145,5.5,6.9,63,0.01,FEW,FEW,0.01,823.0,WeatherDisplay:10.37,2013-03-25 17:33:00,
2013-03-25 11:40:00,26.9,15.6,30.44,SE,143,0.1,2.0,62,0.01,FEW,FEW,0.01,837.0,WeatherDisplay:10.37,2013-03-25 17:40:00,
2013-03-25 11:47:00,27.7,15.2,30.43,ESE,115,1.9,4.6,59,0.01,FEW,FEW,0.01,849.0,WeatherDisplay:10.37,2013-03-25 17:47:00,
2013-03-25 11:54:00,28.0,14.7,30.43,ENE,61,0.9,3.4,57,0.01,FEW,FEW,0.01,856.0,WeatherDisplay:10.37,2013-03-25 17:54:00,
2013-03-25 12:01:00,28.3,14.2,30.43,SE,132,4.9,7.0,55,0.01,FEW,FEW,0.01,867.0,WeatherDisplay:10.37,2013-03-25 18:01:00,
2013-03-25 12:08:00,28.3,12.9,30.44,WNW,299,0.6,2.3,52,0.01,FEW,FEW,0.01,868.0,WeatherDisplay:10.37,2013-03-25 18:08:00,
2013-03-25 12:15:00,28.9,12.1,30.42,ESE,106,2.0,4.6,49,0.01,FEW,FEW,0.01,879.0,WeatherDisplay:10.37,2013-03-25 18:15:00,
2013-03-25 12:22:00,28.9,11.2,30.42,ESE,119,2.2,3.4,47,0.00,FEW,FEW,0.01,882.0,WeatherDisplay:10.37,2013-03-25 18:22:00,
2013-03-25 12:29:00,29.1,11.8,30.42,SE,135,2.9,6.0,48,0.01,RA,RA,0.02,891.0,WeatherDisplay:10.37,2013-03-25 18:29:00,
2013-03-25 12:36:00,28.8,11.1,30.42,SSE,153,0.2,2.3,47,0.01,FEW,FEW,0.02,895.0,WeatherDisplay:10.37,2013-03-25 18:36:00,
2013-03-25 12:43:00,29.4,11.6,30.42,SE,140,0.4,3.4,47,0.01,FEW,FEW,0.02,900.0,WeatherDisplay:10.37,2013-03-25 18:43:00,
2013-03-25 12:50:00,29.9,11.6,30.42,ESE,117,3.2,4.6,46,0.01,FEW,FEW,0.02,896.0,WeatherDisplay:10.37,2013-03-25 18:50:00,
2013-03-25 12:57:00,29.8,12.5,30.42,SE,131,7.4,10.3,48,0.01,FEW,FEW,0.02,896.0,WeatherDisplay:10.37,2013-03-25 18:57:00,
2013-03-25 13:04:00,29.8,12.5,30.42,ESE,115,1.9,3.4,48,0.01,FEW,FEW,0.02,896.0,WeatherDisplay:10.37,2013-03-25 19:04:00,
2013-03-25 13:11:00,30.0,12.2,30.42,East,95,4.1,5.0,47,0.01,FEW,FEW,0.02,895.0,WeatherDisplay:10.37,2013-03-25 19:11:00,
2013-03-25 13:18:00,30.1,11.8,30.41,NNE,29,1.8,4.6,46,0.01,FEW,FEW,0.02,893.0,WeatherDisplay:10.37,2013-03-25 19:18:00,
2013-03-25 13:25:00,30.5,12.2,30.41,SE,138,1.8,3.4,46,0.00,FEW,FEW,0.02,893.0,WeatherDisplay:10.37,2013-03-25 19:25:00,
2013-03-25 13:32:00,30.2,10.9,30.41,East,98,0.2,1.1,44,0.00,FEW,FEW,0.02,889.0,WeatherDisplay:10.37,2013-03-25 19:32:00,
2013-03-25 13:39:00,30.8,12.9,30.40,ENE,63,0.6,3.4,47,0.01,RA,RA,0.03,881.0,WeatherDisplay:10.37,2013-03-25 19:39:00,
2013-03-25 13:46:00,31.3,13.4,30.40,East,79,3.6,5.0,47,0.01,RA,RA,0.03,877.0,WeatherDisplay:10.37,2013-03-25 19:46:00,
2013-03-25 13:53:00,31.2,12.3,30.40,East,96,5.2,5.8,45,0.01,FEW,FEW,0.03,879.0,WeatherDisplay:10.37,2013-03-25 19:53:00,
2013-03-25 14:00:00,31.0,11.1,30.40,SE,138,0.3,2.0,43,0.01,FEW,FEW,0.03,868.0,WeatherDisplay:10.37,2013-03-25 20:00:00,
2013-03-25 14:07:00,31.1,12.7,30.40,ESE,116,3.6,5.8,46,0.01,FEW,FEW,0.03,861.0,WeatherDisplay:10.37,2013-03-25 20:07:00,
2013-03-25 14:14:00,31.0,11.6,30.40,NE,42,3.7,6.9,44,0.01,FEW,FEW,0.03,856.0,WeatherDisplay:10.37,2013-03-25 20:14:00,
2013-03-25 14:21:00,31.0,11.1,30.40,East,89,1.8,3.0,43,0.01,FEW,FEW,0.03,846.0,WeatherDisplay:10.37,2013-03-25 20:21:00,
2013-03-25 14:28:00,31.4,12.0,30.40,ESE,111,4.0,4.0,44,0.01,FEW,FEW,0.03,840.0,WeatherDisplay:10.37,2013-03-25 20:28:00,
2013-03-25 14:35:00,31.7,11.2,30.38,NE,51,2.1,4.0,42,0.01,FEW,FEW,0.03,823.0,WeatherDisplay:10.37,2013-03-25 20:35:00,
2013-03-25 14:42:00,31.6,11.1,30.38,North,9,0.7,2.3,42,0.00,FEW,FEW,0.03,810.0,WeatherDisplay:10.37,2013-03-25 20:42:00,
2013-03-25 14:49:00,31.9,11.9,30.38,SE,131,3.5,5.8,43,0.00,FEW,FEW,0.03,796.0,WeatherDisplay:10.37,2013-03-25 20:49:00,
2013-03-25 14:56:00,32.3,12.8,30.37,ESE,103,1.3,3.4,44,0.00,FEW,FEW,0.03,784.0,WeatherDisplay:10.37,2013-03-25 20:56:00,
2013-03-25 15:03:00,32.4,12.9,30.39,SSE,157,4.8,9.2,44,0.00,FEW,FEW,0.03,770.0,WeatherDisplay:10.37,2013-03-25 21:03:00,
2013-03-25 15:10:00,32.5,12.5,30.37,SE,146,3.9,8.1,43,0.00,FEW,FEW,0.03,756.0,WeatherDisplay:10.37,2013-03-25 21:10:00,
2013-03-25 15:17:00,32.3,13.3,30.38,ESE,105,2.2,3.4,45,0.00,FEW,FEW,0.03,740.0,WeatherDisplay:10.37,2013-03-25 21:17:00,
2013-03-25 15:24:00,32.7,12.1,30.37,East,96,1.0,4.6,42,0.00,FEW,FEW,0.03,722.0,WeatherDisplay:10.37,2013-03-25 21:24:00,
2013-03-25 15:31:00,33.0,13.9,30.37,ENE,71,1.6,3.4,45,0.00,FEW,FEW,0.03,707.0,WeatherDisplay:10.37,2013-03-25 21:31:00,
2013-03-25 15:38:00,33.4,12.7,30.37,ESE,117,4.2,9.2,42,0.00,FEW,FEW,0.03,682.0,WeatherDisplay:10.37,2013-03-25 21:38:00,
2013-03-25 15:45:00,32.8,11.6,30.37,SE,141,2.2,7.0,41,0.00,FEW,FEW,0.03,673.0,WeatherDisplay:10.37,2013-03-25 21:45:00,
2013-03-25 15:52:00,32.7,12.1,30.36,SE,133,4.5,4.6,42,0.00,FEW,FEW,0.03,654.0,WeatherDisplay:10.37,2013-03-25 21:52:00,
2013-03-25 15:59:00,32.8,11.6,30.37,ESE,107,2.7,4.0,41,0.00,FEW,FEW,0.03,635.0,WeatherDisplay:10.37,2013-03-25 21:59:00,
2013-03-25 16:06:00,33.2,9.7,30.38,SE,145,2.8,6.0,37,0.00,FEW,FEW,0.03,615.0,WeatherDisplay:10.37,2013-03-25 22:06:00,
2013-03-25 16:12:00,33.5,10.0,30.38,SSE,162,2.7,3.4,37,0.00,FEW,FEW,0.03,599.0,WeatherDisplay:10.37,2013-03-25 22:12:00,
2013-03-25 16:20:00,33.6,8.8,30.38,East,99,0.1,2.3,35,0.00,FEW,FEW,0.03,573.0,WeatherDisplay:10.37,2013-03-25 22:20:00,
2013-03-25 16:26:00,33.6,8.2,30.38,East,97,1.9,3.0,34,0.00,FEW,FEW,0.03,550.0,WeatherDisplay:10.37,2013-03-25 22:26:00,
2013-03-25 16:33:00,33.5,6.7,30.38,ESE,117,0.5,2.3,32,0.00,FEW,FEW,0.03,529.0,WeatherDisplay:10.37,2013-03-25 22:33:00,
2013-03-25 16:40:00,33.5,8.1,30.38,SE,142,2.2,5.8,34,0.00,FEW,FEW,0.03,508.0,WeatherDisplay:10.37,2013-03-25 22:40:00,
2013-03-25 16:47:00,33.6,6.8,30.38,SE,144,0.0,1.1,32,0.00,FEW,FEW,0.03,489.0,WeatherDisplay:10.37,2013-03-25 22:47:00,
2013-03-25 16:54:00,34.0,9.8,30.37,SSE,158,0.2,3.4,36,0.00,FEW,FEW,0.03,459.0,WeatherDisplay:10.37,2013-03-25 22:54:00,
2013-03-25 17:01:00,33.9,10.3,30.37,SSW,213,1.6,4.6,37,0.00,FEW,FEW,0.03,436.0,WeatherDisplay:10.37,2013-03-25 23:01:00,
2013-03-25 17:08:00,33.8,8.4,30.38,SE,130,1.9,6.0,34,0.00,FEW,FEW,0.03,411.0,WeatherDisplay:10.37,2013-03-25 23:08:00,
2013-03-25 17:15:00,33.6,7.5,30.37,SE,134,0.1,2.3,33,0.00,FEW,FEW,0.03,388.0,WeatherDisplay:10.37,2013-03-25 23:15:00,
2013-03-25 17:22:00,33.7,6.9,30.38,SE,131,2.4,5.0,32,0.00,FEW,FEW,0.03,369.0,WeatherDisplay:10.37,2013-03-25 23:22:00,
2013-03-25 17:29:00,33.7,6.2,30.38,ESE,105,4.6,5.0,31,0.00,FEW,FEW,0.03,339.0,WeatherDisplay:10.37,2013-03-25 23:29:00,
2013-03-25 17:36:00,33.4,5.2,30.37,ESE,117,1.3,4.6,30,0.00,FEW,FEW,0.03,318.0,WeatherDisplay:10.37,2013-03-25 23:36:00,
2013-03-25 17:43:00,33.5,6.0,30.37,ESE,117,1.3,2.3,31,0.00,FEW,FEW,0.03,295.0,WeatherDisplay:10.37,2013-03-25 23:43:00,
2013-03-25 17:50:00,33.7,5.5,30.37,ESE,117,0.5,2.3,30,0.00,FEW,FEW,0.03,271.0,WeatherDisplay:10.37,2013-03-25 23:50:00,
2013-03-25 17:57:00,33.9,6.4,30.38,ESE,117,1.0,2.3,31,0.00,FEW,FEW,0.03,248.0,WeatherDisplay:10.37,2013-03-25 23:57:00,
2013-03-25 18:04:00,33.9,7.1,30.38,ESE,117,0.8,2.3,32,0.00,FEW,FEW,0.03,229.0,WeatherDisplay:10.37,2013-03-26 00:04:00,
2013-03-25 18:11:00,34.1,7.3,30.38,ESE,117,0.0,3.4,32,0.00,FEW,FEW,0.03,192.0,WeatherDisplay:10.37,2013-03-26 00:11:00,
2013-03-25 18:18:00,34.0,8.5,30.38,ESE,121,1.0,2.3,34,0.00,FEW,FEW,0.03,169.0,WeatherDisplay:10.37,2013-03-26 00:18:00,
2013-03-25 18:25:00,33.8,9.6,30.38,East,88,2.1,3.4,36,0.00,FEW,FEW,0.03,146.0,WeatherDisplay:10.37,2013-03-26 00:25:00,
2013-03-25 18:32:00,33.4,9.3,30.38,East,83,1.2,3.4,36,0.00,FEW,FEW,0.03,120.0,WeatherDisplay:10.37,2013-03-26 00:32:00,
2013-03-25 18:39:00,32.9,8.8,30.38,East,84,2.2,3.4,36,0.00,FEW,FEW,0.03,60.0,WeatherDisplay:10.37,2013-03-26 00:39:00,
2013-03-25 18:46:00,32.3,9.5,30.39,East,84,1.1,2.3,38,0.00,FEW,FEW,0.03,30.0,WeatherDisplay:10.37,2013-03-26 00:46:00,
2013-03-25 18:53:00,31.7,9.0,30.39,East,91,1.1,2.3,38,0.00,FEW,FEW,0.03,25.0,WeatherDisplay:10.37,2013-03-26 00:53:00,
2013-03-25 19:00:00,31.4,9.8,30.39,East,91,0.0,0.0,40,0.00,FEW,FEW,0.03,18.0,WeatherDisplay:10.37,2013-03-26 01:00:00,
2013-03-25 19:07:00,31.1,7.8,30.40,SSE,154,3.2,4.6,37,0.00,FEW,FEW,0.03,12.0,WeatherDisplay:10.37,2013-03-26 01:07:00,
2013-03-25 19:14:00,30.9,8.2,30.40,SE,140,2.0,3.4,38,0.00,FEW,FEW,0.03,7.0,WeatherDisplay:10.37,2013-03-26 01:14:00,
2013-03-25 19:21:00,30.7,8.6,30.40,SE,146,2.3,3.4,39,0.00,FEW,FEW,0.03,0.0,WeatherDisplay:10.37,2013-03-26 01:21:00,
2013-03-25 19:28:00,30.4,8.4,30.40,SE,139,3.1,9.2,39,0.00,FEW,FEW,0.03,0.0,WeatherDisplay:10.37,2013-03-26 01:28:00,
2013-03-25 19:35:00,30.1,8.7,30.40,SSE,162,1.8,3.4,40,0.00,FEW,FEW,0.03,0.0,WeatherDisplay:10.37,2013-03-26 01:35:00,
2013-03-25 19:42:00,29.7,8.3,30.40,SSE,153,1.7,4.0,40,0.00,FEW,FEW,0.03,0.0,WeatherDisplay:10.37,2013-03-26 01:42:00,
2013-03-25 19:49:00,29.3,7.4,30.41,SSE,153,2.7,6.9,39,0.00,FEW,FEW,0.03,0.0,WeatherDisplay:10.37,2013-03-26 01:49:00,
2013-03-25 19:56:00,29.0,7.1,30.42,SSE,152,2.2,3.4,39,0.00,FEW,FEW,0.03,0.0,WeatherDisplay:10.37,2013-03-26 01:56:00,
2013-03-25 20:03:00,28.8,8.0,30.39,SSE,160,0.0,2.3,41,0.00,FEW,FEW,0.03,0.0,WeatherDisplay:10.37,2013-03-26 02:03:00,
2013-03-25 20:10:00,28.6,8.4,30.39,SSE,150,1.2,4.6,42,0.00,FEW,FEW,0.03,0.0,WeatherDisplay:10.37,2013-03-26 02:10:00,
2013-03-25 20:17:00,28.4,8.7,30.41,SE,142,1.0,2.3,43,0.00,FEW,FEW,0.03,0.0,WeatherDisplay:10.37,2013-03-26 02:17:00,
2013-03-25 20:24:00,28.2,8.5,30.41,SE,143,0.6,2.3,43,0.00,FEW,FEW,0.03,0.0,WeatherDisplay:10.37,2013-03-26 02:24:00,
2013-03-25 20:31:00,28.0,8.9,30.41,SE,145,1.5,3.4,44,0.00,FEW,FEW,0.03,0.0,WeatherDisplay:10.37,2013-03-26 02:31:00,
2013-03-25 20:38:00,27.9,8.8,30.41,South,175,1.9,3.4,44,0.00,FEW,FEW,0.03,0.0,WeatherDisplay:10.37,2013-03-26 02:38:00,
2013-03-25 20:45:00,27.8,8.7,30.41,South,182,0.8,3.4,44,0.00,FEW,FEW,0.03,0.0,WeatherDisplay:10.37,2013-03-26 02:45:00,
2013-03-25 20:52:00,27.7,8.6,30.41,South,180,0.9,3.4,44,0.00,FEW,FEW,0.03,0.0,WeatherDisplay:10.37,2013-03-26 02:52:00,
2013-03-25 20:59:00,27.6,8.5,30.41,South,178,0.3,1.1,44,0.00,FEW,FEW,0.03,0.0,WeatherDisplay:10.37,2013-03-26 02:59:00,
2013-03-25 21:06:00,27.5,7.4,30.38,South,176,0.7,3.4,42,0.00,CLR,CLR,0.03,0.0,WeatherDisplay:10.37,2013-03-26 03:06:00,
2013-03-25 21:13:00,27.4,7.8,30.39,South,182,0.0,2.3,43,0.00,CLR,CLR,0.03,0.0,WeatherDisplay:10.37,2013-03-26 03:13:00,
2013-03-25 21:20:00,27.3,7.7,30.39,South,182,0.0,0.0,43,0.00,CLR,CLR,0.03,0.0,WeatherDisplay:10.37,2013-03-26 03:20:00,
2013-03-25 21:27:00,27.2,7.6,30.39,South,182,0.3,2.3,43,0.00,CLR,CLR,0.03,0.0,WeatherDisplay:10.37,2013-03-26 03:27:00,
2013-03-25 21:34:00,27.1,8.0,30.39,South,182,0.3,1.1,44,0.00,CLR,CLR,0.03,0.0,WeatherDisplay:10.37,2013-03-26 03:34:00,
2013-03-25 21:41:00,27.0,8.0,30.39,South,183,1.8,3.4,44,0.00,CLR,CLR,0.03,0.0,WeatherDisplay:10.37,2013-03-26 03:41:00,
2013-03-25 21:48:00,26.8,7.8,30.39,SSW,196,1.0,2.0,44,0.00,CLR,CLR,0.03,0.0,WeatherDisplay:10.37,2013-03-26 03:48:00,
2013-03-25 21:55:00,26.6,7.6,30.39,SSW,200,1.5,3.4,44,0.00,CLR,CLR,0.03,0.0,WeatherDisplay:10.37,2013-03-26 03:55:00,
2013-03-25 22:02:00,26.4,7.9,30.39,SSW,201,0.6,2.3,45,0.00,CLR,CLR,0.03,0.0,WeatherDisplay:10.37,2013-03-26 04:02:00,
2013-03-25 22:09:00,26.2,8.2,30.37,SSW,205,0.9,3.4,46,0.00,CLR,CLR,0.03,0.0,WeatherDisplay:10.37,2013-03-26 04:09:00,
2013-03-25 22:16:00,26.1,9.1,30.37,SW,226,1.6,3.4,48,0.00,CLR,CLR,0.03,0.0,WeatherDisplay:10.37,2013-03-26 04:16:00,
2013-03-25 22:23:00,26.0,9.4,30.37,SW,221,1.3,3.4,49,0.00,CLR,CLR,0.03,0.0,WeatherDisplay:10.37,2013-03-26 04:23:00,
2013-03-25 22:30:00,25.7,9.6,30.37,SSW,199,1.6,3.4,50,0.00,CLR,CLR,0.03,0.0,WeatherDisplay:10.37,2013-03-26 04:30:00,
2013-03-25 22:37:00,25.5,9.9,30.37,South,188,0.2,2.3,51,0.00,CLR,CLR,0.03,0.0,WeatherDisplay:10.37,2013-03-26 04:37:00,
2013-03-25 22:44:00,25.3,9.7,30.37,South,189,1.1,3.4,51,0.00,CLR,CLR,0.03,0.0,WeatherDisplay:10.37,2013-03-26 04:44:00,
2013-03-25 22:51:00,25.2,10.0,30.36,South,170,1.7,3.4,52,0.00,CLR,CLR,0.03,0.0,WeatherDisplay:10.37,2013-03-26 04:51:00,
2013-03-25 22:58:00,25.0,9.8,30.36,South,169,1.8,3.4,52,0.00,CLR,CLR,0.03,0.0,WeatherDisplay:10.37,2013-03-26 04:58:00,
2013-03-25 23:05:00,24.6,9.5,30.34,South,170,0.7,2.3,52,0.00,CLR,CLR,0.03,0.0,WeatherDisplay:10.37,2013-03-26 05:05:00,
2013-03-25 23:12:00,24.2,9.1,30.34,South,169,1.9,3.4,52,0.00,CLR,CLR,0.03,0.0,WeatherDisplay:10.37,2013-03-26 05:12:00,
2013-03-25 23:19:00,23.8,8.7,30.34,SSE,150,3.2,4.6,52,0.00,CLR,CLR,0.03,0.0,WeatherDisplay:10.37,2013-03-26 05:19:00,
2013-03-25 23:26:00,23.5,8.9,30.34,SE,138,3.7,6.0,53,0.00,CLR,CLR,0.03,0.0,WeatherDisplay:10.37,2013-03-26 05:26:00,
2013-03-25 23:33:00,23.3,9.5,30.35,SE,138,5.0,6.9,55,0.00,CLR,CLR,0.03,0.0,WeatherDisplay:10.37,2013-03-26 05:33:00,
2013-03-25 23:40:00,23.1,9.7,30.34,SE,141,1.5,3.4,56,0.00,CLR,CLR,0.03,0.0,WeatherDisplay:10.37,2013-03-26 05:40:00,
2013-03-25 23:47:00,22.9,9.9,30.34,SSE,166,0.3,2.3,57,0.00,CLR,CLR,0.03,0.0,WeatherDisplay:10.37,2013-03-26 05:47:00,
2013-03-25 23:54:00,22.7,10.1,30.34,SSE,159,3.0,5.8,58,0.00,CLR,CLR,0.03,0.0,WeatherDisplay:10.37,2013-03-26 05:54:00,